EW1963 Weather Reports


time (UTC)temp
C
wind
direction
speed
KPH
gust
KPH
rain 1hr
cm
rain 24hr
cm
rain mn
cm
humidity
%
barometer
mb
20260506204706 20 18 1.6 8.0 0.00 0.00 0.00 79 1010.4
20260506203707 20 39 1.6 12.9 0.00 0.00 0.00 79 1010.4
20260506203205 20 55 1.6 8.0 0.00 0.00 0.00 78 1010.3
20260506202706 21 127 0.0 8.0 0.00 0.00 0.00 78 1010.3
20260506202207 21 6 0.0 8.0 0.00 0.00 0.00 80 1010.2
20260506201706 21 38 0.0 6.4 0.00 0.00 0.00 78 1010.1
20260506201206 21 300 0.0 6.4 0.00 0.00 0.00 79 1010.0
20260506200706 21 23 0.0 6.4 0.00 0.00 0.00 78 1010.0
20260506200207 22 45 0.0 6.4 0.00 0.00 0.00 77 1009.9
20260506195706 22 14 0.0 6.4 0.00 0.00 0.00 75 1009.8
20260506195207 23 25 0.0 6.4 0.00 0.00 0.00 77 1009.6
20260506194705 23 342 0.0 6.4 0.00 0.00 0.00 78 1009.6
20260506194207 23 299 0.0 6.4 0.00 0.00 0.00 80 1009.6
20260506193706 23 21 0.0 8.0 0.00 0.00 0.00 78 1009.5
20260506193206 24 1 0.0 8.0 0.00 0.00 0.00 76 1009.5
20260506192706 24 17 0.0 8.0 0.00 0.00 0.00 77 1009.4
20260506192207 24 6 0.0 4.8 0.00 0.00 0.00 76 1009.4
20260506191706 24 6 0.0 4.8 0.00 0.00 0.00 76 1009.5
20260506191205 24 355 0.0 4.8 0.00 0.00 0.00 75 1009.5
20260506190706 25 12 0.0 3.2 0.00 0.00 0.00 75 1009.8
20260506190207 25 12 0.0 3.2 0.00 0.00 0.00 76 1009.6
20260506185706 25 18 0.0 6.4 0.00 0.00 0.00 74 1009.6
20260506185205 25 351 0.0 6.4 0.00 0.00 0.00 79 1009.5
20260506184706 25 339 0.0 6.4 0.00 0.00 0.00 75 1009.4
20260506184207 24 15 0.0 6.4 0.00 0.00 0.00 76 1009.5
20260506183706 24 15 0.0 0.0 0.00 0.00 0.00 78 1009.5
20260506182706 23 337 0.0 3.2 0.00 0.00 0.00 78 1009.8
20260506182207 23 337 0.0 3.2 0.00 0.00 0.00 79 1009.8
20260506181706 23 331 0.0 4.8 0.00 0.00 0.00 78 1009.8
20260506181206 23 340 0.0 4.8 0.00 0.00 0.00 81 1009.8
20260506180705 23 342 0.0 4.8 0.00 0.00 0.00 80 1009.8
20260506180207 23 342 0.0 1.6 0.00 0.00 0.00 80 1009.6
20260506175706 22 342 0.0 1.6 0.00 0.00 0.00 79 1009.5
20260506174706 22 7 0.0 0.0 0.00 0.00 0.00 82 1009.6
20260506174207 22 21 0.0 0.0 0.00 0.00 0.00 81 1009.8
20260506173206 21 20 0.0 11.3 0.00 0.00 0.00 83 1010.0
20260506172706 21 28 0.0 0.0 0.00 0.00 0.00 86 1010.0
20260506172207 21 331 0.0 0.0 0.00 0.00 0.00 85 1009.9
20260506171707 20 324 0.0 0.0 0.00 0.00 0.00 86 1009.9
20260506171206 20 325 0.0 0.0 0.00 0.00 0.00 86 1009.9
20260506010206 28 221 0.0 0.0 0.00 0.00 0.00 77 1004.4
20260506005706 28 221 0.0 0.0 0.00 0.00 0.00 77 1004.4
20260506005206 28 221 0.0 0.0 0.00 0.00 0.00 77 1004.4
20260506004707 28 221 0.0 0.0 0.00 0.00 0.00 77 1004.4
20260506004207 28 221 0.0 6.4 0.00 0.00 0.00 76 1004.2
20260506003706 28 221 0.0 6.4 0.00 0.00 0.00 76 1004.2
20260506003206 28 221 0.0 6.4 0.00 0.00 0.00 75 1004.2
20260506002706 28 221 0.0 0.0 0.00 0.00 0.00 75 1004.2
20260506001705 28 221 0.0 0.0 0.00 0.00 0.00 76 1004.2
20260506001206 28 218 0.0 0.0 0.00 0.00 0.00 76 1004.1
20260506000706 28 218 0.0 0.0 0.00 0.00 0.00 76 1004.1
20260506000207 28 218 0.0 1.6 0.00 0.00 0.00 76 1004.1
20260505235706 28 218 0.0 1.6 0.00 0.00 0.00 75 1004.1
20260505235206 28 218 0.0 3.2 0.00 0.00 0.00 75 1004.0
20260505234706 28 218 0.0 3.2 0.00 0.00 0.00 75 1004.0
20260505234207 28 218 0.0 1.6 0.00 0.00 0.00 75 1003.9
20260505233706 28 218 0.0 0.0 0.00 0.00 0.00 75 1003.9
20260505232705 28 218 0.0 3.2 0.00 0.00 0.00 74 1004.0
20260505232210 28 218 0.0 8.0 0.00 0.00 0.00 74 1004.0
20260505231707 28 220 0.0 8.0 0.00 0.00 0.00 74 1003.9
20260505231206 28 220 0.0 8.0 0.00 0.00 0.00 73 1004.0
20260505230207 28 232 0.0 8.0 0.00 0.00 0.00 73 1003.7
20260505225706 28 222 0.0 8.0 0.00 0.00 0.00 73 1003.6
20260505224207 28 219 0.0 8.0 0.00 0.00 0.00 73 1003.6
20260505223206 29 213 0.0 8.0 0.00 0.00 0.00 72 1003.6
20260505222705 29 211 0.0 8.0 0.00 0.00 0.00 71 1003.6
20260505222206 29 212 0.0 8.0 0.00 0.00 0.00 71 1003.6
20260505221706 29 209 0.0 6.4 0.00 0.00 0.00 71 1003.6
20260505221206 29 208 0.0 8.0 0.00 0.00 0.00 71 1003.7
20260505220705 29 205 1.6 9.7 0.00 0.00 0.00 71 1003.7
20260505220207 29 203 1.6 9.7 0.00 0.00 0.00 70 1003.9
20260505215707 29 215 1.6 9.7 0.00 0.00 0.00 71 1004.0
20260505215206 29 207 1.6 8.0 0.00 0.00 0.00 72 1004.2
20260505214707 29 215 1.6 8.0 0.00 0.00 0.00 72 1004.2
20260505214207 28 215 1.6 8.0 0.00 0.00 0.00 72 1004.1
20260505213706 29 215 0.0 8.0 0.00 0.00 0.00 73 1004.3
20260505213206 28 214 0.0 8.0 0.00 0.00 0.00 73 1004.4
20260505212707 28 214 0.0 8.0 0.00 0.00 0.00 74 1004.4
20260505212206 28 214 0.0 8.0 0.00 0.00 0.00 73 1004.4
20260505211705 28 213 0.0 8.0 0.00 0.00 0.00 74 1004.3
20260505211207 28 213 0.0 8.0 0.00 0.00 0.00 73 1004.4
20260505210706 28 215 0.0 9.7 0.00 0.00 0.00 74 1004.4
20260505210207 28 215 0.0 9.7 0.00 0.00 0.00 73 1004.5
20260505205706 29 214 1.6 9.7 0.00 0.00 0.00 71 1004.5
20260505205206 29 211 1.6 9.7 0.00 0.00 0.00 72 1004.5